Time,TemperatureF,DewpointF,PressureIn,WindDirection,WindDirectionDegrees,WindSpeedMPH,WindSpeedGustMPH,Humidity,HourlyPrecipIn,Conditions,Clouds,dailyrainin,SoftwareType,DateUTC
2013-02-28 00:01:00,42.0,34.0,29.90,WNW,285,1.0,0.0,74,0.00,,,0.24,,2013-02-28 06:01:00,
2013-02-28 00:11:00,42.0,34.0,29.90,WNW,285,1.0,0.0,74,0.00,,,0.24,,2013-02-28 06:11:00,
2013-02-28 00:22:00,42.0,34.0,29.90,WSW,250,0.0,0.0,73,0.00,,,0.00,,2013-02-28 06:22:00,
2013-02-28 00:32:00,42.0,34.0,29.90,WSW,250,0.0,0.0,74,0.00,,,0.00,,2013-02-28 06:32:00,
2013-02-28 00:42:00,42.0,34.0,29.90,WSW,250,0.0,0.0,74,0.00,,,0.00,,2013-02-28 06:42:00,
2013-02-28 00:52:00,41.0,34.0,29.90,WSW,250,0.0,0.0,76,0.00,,,0.00,,2013-02-28 06:52:00,
2013-02-28 01:01:00,41.0,34.0,29.90,WSW,250,0.0,0.0,76,0.00,,,0.00,,2013-02-28 07:01:00,
2013-02-28 01:11:00,41.0,34.0,29.90,WSW,250,0.0,0.0,76,0.00,,,0.00,,2013-02-28 07:11:00,
2013-02-28 01:21:00,41.0,35.0,29.90,South,184,0.0,0.0,78,0.00,,,0.00,,2013-02-28 07:21:00,
2013-02-28 01:31:00,41.0,35.0,29.89,WNW,290,0.0,0.0,79,0.00,,,0.00,,2013-02-28 07:31:00,
2013-02-28 01:42:00,41.0,35.0,29.89,WNW,290,0.0,0.0,79,0.00,,,0.00,,2013-02-28 07:42:00,
2013-02-28 01:52:00,41.0,35.0,29.89,SSE,159,1.0,0.0,80,0.00,,,0.00,,2013-02-28 07:52:00,
2013-02-28 02:01:00,41.0,36.0,29.88,SW,226,1.0,0.0,81,0.00,,,0.00,,2013-02-28 08:01:00,
2013-02-28 02:11:00,41.0,36.0,29.88,SW,226,1.0,0.0,81,0.00,,,0.00,,2013-02-28 08:11:00,
2013-02-28 02:22:00,41.0,36.0,29.88,SW,214,0.0,0.0,81,0.00,,,0.00,,2013-02-28 08:22:00,
2013-02-28 02:32:00,42.0,37.0,29.88,SW,221,0.0,0.0,81,0.00,,,0.00,,2013-02-28 08:32:00,
2013-02-28 02:42:00,42.0,37.0,29.88,SW,221,0.0,0.0,81,0.00,,,0.00,,2013-02-28 08:42:00,
2013-02-28 02:53:00,42.0,37.0,29.88,NW,305,1.0,5.0,82,0.00,,,0.00,,2013-02-28 08:53:00,
2013-02-28 03:03:00,42.0,37.0,29.88,NW,321,3.0,3.0,82,0.00,,,0.00,,2013-02-28 09:03:00,
2013-02-28 03:11:00,42.0,37.0,29.88,NW,321,3.0,3.0,82,0.00,,,0.00,,2013-02-28 09:11:00,
2013-02-28 03:22:00,42.0,37.0,29.88,WNW,283,0.0,0.0,82,0.00,,,0.00,,2013-02-28 09:22:00,
2013-02-28 03:32:00,42.0,37.0,29.88,NW,304,6.0,6.0,82,0.00,,,0.00,,2013-02-28 09:32:00,
2013-02-28 03:42:00,42.0,37.0,29.88,NW,304,6.0,6.0,82,0.00,,,0.00,,2013-02-28 09:42:00,
2013-02-28 03:52:00,41.0,35.0,29.88,NW,315,4.0,0.0,78,0.00,,,0.00,,2013-02-28 09:52:00,
2013-02-28 04:01:00,41.0,34.0,29.88,WNW,297,2.0,0.0,77,0.00,,,0.00,,2013-02-28 10:01:00,
2013-02-28 04:11:00,41.0,34.0,29.88,WNW,283,2.0,0.0,77,0.00,,,0.00,,2013-02-28 10:11:00,
2013-02-28 04:21:00,41.0,34.0,29.88,WNW,283,2.0,0.0,77,0.00,,,0.00,,2013-02-28 10:21:00,
2013-02-28 04:32:00,40.0,33.0,29.88,NNW,335,3.0,0.0,76,0.00,,,0.00,,2013-02-28 10:32:00,
2013-02-28 04:42:00,40.0,33.0,29.88,NNW,335,3.0,0.0,76,0.00,,,0.00,,2013-02-28 10:42:00,
2013-02-28 04:52:00,40.0,33.0,29.89,WNW,287,4.0,7.0,76,0.00,,,0.00,,2013-02-28 10:52:00,
2013-02-28 05:01:00,39.0,32.0,29.90,West,278,4.0,4.0,77,0.00,,,0.00,,2013-02-28 11:01:00,
2013-02-28 05:11:00,39.0,32.0,29.90,West,278,4.0,4.0,77,0.00,,,0.00,,2013-02-28 11:11:00,
2013-02-28 05:21:00,39.0,33.0,29.91,West,281,3.0,0.0,78,0.00,,,0.00,,2013-02-28 11:21:00,
2013-02-28 05:32:00,39.0,32.0,29.92,WNW,301,6.0,11.0,76,0.00,,,0.00,,2013-02-28 11:32:00,
2013-02-28 05:42:00,39.0,32.0,29.92,WNW,301,6.0,11.0,76,0.00,,,0.00,,2013-02-28 11:42:00,
2013-02-28 05:52:00,38.0,31.0,29.92,NW,323,7.0,8.0,75,0.00,,,0.00,,2013-02-28 11:52:00,
2013-02-28 06:01:00,38.0,30.0,29.92,WNW,295,6.0,12.0,73,0.00,,,0.00,,2013-02-28 12:01:00,
2013-02-28 06:11:00,38.0,30.0,29.92,WNW,295,6.0,12.0,73,0.00,,,0.00,,2013-02-28 12:11:00,
2013-02-28 06:21:00,37.0,29.0,29.93,NW,308,5.0,0.0,72,0.00,,,0.00,,2013-02-28 12:21:00,
2013-02-28 06:32:00,36.0,28.0,29.93,SW,231,1.0,4.0,73,0.00,,,0.00,,2013-02-28 12:32:00,
2013-02-28 06:42:00,36.0,28.0,29.93,SW,231,1.0,4.0,73,0.00,,,0.00,,2013-02-28 12:42:00,
2013-02-28 06:52:00,36.0,29.0,29.94,WSW,250,2.0,0.0,74,0.00,,,0.00,,2013-02-28 12:52:00,
2013-02-28 07:01:00,36.0,29.0,29.94,WNW,287,2.0,7.0,75,0.00,,,0.00,,2013-02-28 13:01:00,
2013-02-28 07:11:00,36.0,29.0,29.95,West,274,1.0,9.0,76,0.00,,,0.00,,2013-02-28 13:11:00,
2013-02-28 07:21:00,36.0,29.0,29.95,West,274,1.0,9.0,76,0.00,,,0.00,,2013-02-28 13:21:00,
2013-02-28 07:32:00,37.0,30.0,29.95,NW,319,3.0,4.0,76,0.00,,,0.00,,2013-02-28 13:32:00,
2013-02-28 07:42:00,37.0,30.0,29.95,NW,319,3.0,4.0,76,0.00,,,0.00,,2013-02-28 13:42:00,
2013-02-28 07:52:00,38.0,30.0,29.96,NW,322,1.0,0.0,73,0.00,,,0.00,,2013-02-28 13:52:00,
2013-02-28 08:01:00,40.0,31.0,29.96,NW,316,2.0,4.0,71,0.00,,,0.00,,2013-02-28 14:01:00,
2013-02-28 08:11:00,40.0,31.0,29.96,WNW,294,7.0,7.0,69,0.00,,,0.00,,2013-02-28 14:11:00,
2013-02-28 08:22:00,40.0,31.0,29.96,WNW,294,7.0,7.0,69,0.00,,,0.00,,2013-02-28 14:22:00,
2013-02-28 08:32:00,40.0,31.0,29.96,NW,325,5.0,0.0,69,0.00,,,0.00,,2013-02-28 14:32:00,
2013-02-28 08:42:00,40.0,31.0,29.96,WNW,291,9.0,9.0,70,0.00,,,0.00,,2013-02-28 14:42:00,
2013-02-28 08:52:00,40.0,31.0,29.96,WNW,291,9.0,9.0,70,0.00,,,0.00,,2013-02-28 14:52:00,
2013-02-28 09:02:00,39.0,30.0,29.97,NW,314,9.0,9.0,70,0.00,,,0.00,,2013-02-28 15:02:00,
2013-02-28 09:11:00,40.0,31.0,29.96,NNW,330,0.0,6.0,70,0.00,,,0.00,,2013-02-28 15:11:00,
2013-02-28 09:21:00,40.0,31.0,29.96,NNW,330,0.0,6.0,70,0.00,,,0.00,,2013-02-28 15:21:00,
2013-02-28 09:32:00,40.0,31.0,29.96,NW,326,3.0,0.0,69,0.00,,,0.00,,2013-02-28 15:32:00,
2013-02-28 09:41:00,40.0,31.0,29.96,NW,326,3.0,0.0,69,0.00,,,0.00,,2013-02-28 15:41:00,
2013-02-28 09:52:00,41.0,31.0,29.96,WNW,284,8.0,8.0,67,0.00,,,0.00,,2013-02-28 15:52:00,
2013-02-28 10:01:00,41.0,31.0,29.97,West,278,5.0,5.0,67,0.00,,,0.00,,2013-02-28 16:01:00,
2013-02-28 10:11:00,40.0,30.0,29.97,NW,321,4.0,8.0,68,0.00,,,0.00,,2013-02-28 16:11:00,
2013-02-28 10:22:00,40.0,30.0,29.97,NW,321,4.0,8.0,68,0.00,,,0.00,,2013-02-28 16:22:00,
2013-02-28 10:32:00,40.0,30.0,29.97,NW,318,9.0,9.0,67,0.00,,,0.00,,2013-02-28 16:32:00,
2013-02-28 10:42:00,40.0,30.0,29.97,NW,318,9.0,9.0,67,0.00,,,0.00,,2013-02-28 16:42:00,
2013-02-28 10:52:00,40.0,30.0,29.98,West,260,9.0,9.0,68,0.00,,,0.00,,2013-02-28 16:52:00,
2013-02-28 11:01:00,40.0,30.0,29.98,NNW,336,1.0,7.0,68,0.00,,,0.00,,2013-02-28 17:01:00,
2013-02-28 11:11:00,40.0,30.0,29.99,WNW,294,9.0,9.0,67,0.00,,,0.00,,2013-02-28 17:11:00,
2013-02-28 11:22:00,40.0,30.0,29.99,WNW,294,9.0,9.0,67,0.00,,,0.00,,2013-02-28 17:22:00,
2013-02-28 11:32:00,40.0,30.0,29.99,WNW,298,4.0,0.0,67,0.00,,,0.00,,2013-02-28 17:32:00,
2013-02-28 11:42:00,40.0,30.0,29.99,NNW,343,3.0,6.0,67,0.00,,,0.00,,2013-02-28 17:42:00,
2013-02-28 11:52:00,40.0,30.0,29.99,NNW,343,3.0,6.0,67,0.00,,,0.00,,2013-02-28 17:52:00,
2013-02-28 12:02:00,40.0,30.0,29.98,NW,305,6.0,6.0,66,0.00,,,0.00,,2013-02-28 18:02:00,
2013-02-28 12:11:00,40.0,30.0,29.99,NW,318,4.0,7.0,67,0.00,,,0.00,,2013-02-28 18:11:00,
2013-02-28 12:22:00,40.0,30.0,29.99,NW,318,4.0,7.0,67,0.00,,,0.00,,2013-02-28 18:22:00,
2013-02-28 12:32:00,40.0,30.0,30.00,WNW,302,0.0,8.0,68,0.00,,,0.00,,2013-02-28 18:32:00,
2013-02-28 12:42:00,40.0,31.0,29.99,NW,316,0.0,1.0,69,0.00,,,0.00,,2013-02-28 18:42:00,
2013-02-28 12:52:00,40.0,31.0,29.99,NW,316,0.0,1.0,69,0.00,,,0.00,,2013-02-28 18:52:00,
2013-02-28 13:01:00,39.0,30.0,29.99,NW,305,3.0,0.0,70,0.00,,,0.00,,2013-02-28 19:01:00,
2013-02-28 13:11:00,40.0,31.0,29.99,SW,236,2.0,10.0,70,0.00,,,0.00,,2013-02-28 19:11:00,
2013-02-28 13:21:00,40.0,31.0,29.99,SW,236,2.0,10.0,70,0.00,,,0.00,,2013-02-28 19:21:00,
2013-02-28 13:32:00,40.0,31.0,29.99,South,190,7.0,7.0,71,0.00,,,0.00,,2013-02-28 19:32:00,
2013-02-28 13:41:00,40.0,31.0,29.99,South,190,7.0,7.0,71,0.00,,,0.00,,2013-02-28 19:41:00,
2013-02-28 13:52:00,39.0,30.0,29.99,WNW,300,4.0,5.0,71,0.00,,,0.00,,2013-02-28 19:52:00,
2013-02-28 14:01:00,39.0,31.0,30.01,NW,308,1.0,5.0,72,0.00,,,0.00,,2013-02-28 20:01:00,
2013-02-28 14:12:00,39.0,31.0,30.01,WNW,293,3.0,6.0,73,0.00,,,0.00,,2013-02-28 20:12:00,
2013-02-28 14:21:00,39.0,31.0,30.01,WNW,293,3.0,6.0,73,0.00,,,0.00,,2013-02-28 20:21:00,
2013-02-28 14:32:00,40.0,32.0,30.01,WSW,240,4.0,5.0,72,0.00,,,0.00,,2013-02-28 20:32:00,
2013-02-28 14:42:00,40.0,32.0,30.01,WSW,240,4.0,5.0,72,0.00,,,0.00,,2013-02-28 20:42:00,
2013-02-28 14:52:00,40.0,31.0,30.01,SSW,198,1.0,0.0,70,0.00,,,0.00,,2013-02-28 20:52:00,
2013-02-28 15:01:00,40.0,31.0,30.01,NW,304,1.0,0.0,70,0.00,,,0.00,,2013-02-28 21:01:00,
2013-02-28 15:11:00,40.0,31.0,30.01,NW,304,1.0,0.0,70,0.00,,,0.00,,2013-02-28 21:11:00,
2013-02-28 15:22:00,40.0,31.0,30.01,WNW,297,7.0,7.0,69,0.00,,,0.00,,2013-02-28 21:22:00,
2013-02-28 15:32:00,40.0,31.0,30.01,WNW,285,3.0,9.0,69,0.00,,,0.00,,2013-02-28 21:32:00,
2013-02-28 15:41:00,40.0,31.0,30.01,WNW,285,3.0,9.0,69,0.00,,,0.00,,2013-02-28 21:41:00,
2013-02-28 15:52:00,40.0,31.0,30.02,West,276,3.0,0.0,70,0.00,,,0.00,,2013-02-28 21:52:00,
2013-02-28 16:01:00,39.0,30.0,30.01,WNW,285,4.0,9.0,70,0.00,,,0.00,,2013-02-28 22:01:00,
2013-02-28 16:11:00,39.0,30.0,30.02,NW,305,3.0,0.0,70,0.00,,,0.00,,2013-02-28 22:11:00,
2013-02-28 16:21:00,39.0,30.0,30.02,NW,305,3.0,0.0,70,0.00,,,0.00,,2013-02-28 22:21:00,
2013-02-28 16:32:00,39.0,30.0,30.02,NW,309,0.0,5.0,70,0.00,,,0.00,,2013-02-28 22:32:00,
2013-02-28 16:42:00,39.0,30.0,30.02,NW,309,0.0,5.0,70,0.00,,,0.00,,2013-02-28 22:42:00,
2013-02-28 16:52:00,39.0,30.0,30.02,NW,315,2.0,0.0,70,0.00,,,0.00,,2013-02-28 22:52:00,
2013-02-28 17:01:00,39.0,30.0,30.03,NNW,330,0.0,0.0,70,0.00,,,0.00,,2013-02-28 23:01:00,
2013-02-28 17:11:00,39.0,30.0,30.02,West,274,1.0,4.0,69,0.00,,,0.00,,2013-02-28 23:11:00,
2013-02-28 17:22:00,39.0,30.0,30.02,West,274,1.0,4.0,69,0.00,,,0.00,,2013-02-28 23:22:00,
2013-02-28 17:31:00,39.0,30.0,30.03,West,270,2.0,0.0,69,0.00,,,0.00,,2013-02-28 23:31:00,
2013-02-28 17:41:00,39.0,30.0,30.03,West,270,2.0,0.0,69,0.00,,,0.00,,2013-02-28 23:41:00,
2013-02-28 17:53:00,39.0,30.0,30.03,NW,311,0.0,0.0,69,0.00,,,0.00,,2013-02-28 23:53:00,
2013-02-28 18:01:00,39.0,30.0,30.03,WNW,284,0.0,0.0,70,0.00,,,0.00,,2013-03-01 00:01:00,
2013-02-28 18:11:00,39.0,30.0,30.03,WNW,284,0.0,0.0,70,0.00,,,0.00,,2013-03-01 00:11:00,
2013-02-28 18:22:00,39.0,30.0,30.03,WNW,293,0.0,0.0,70,0.00,,,0.00,,2013-03-01 00:22:00,
2013-02-28 18:32:00,38.0,29.0,30.03,WNW,301,2.0,5.0,70,0.00,,,0.00,,2013-03-01 00:32:00,
2013-02-28 18:41:00,38.0,29.0,30.03,WNW,301,2.0,5.0,70,0.00,,,0.00,,2013-03-01 00:41:00,
2013-02-28 18:52:00,38.0,29.0,30.03,NNE,14,0.0,0.0,70,0.00,,,0.00,,2013-03-01 00:52:00,
2013-02-28 19:01:00,38.0,29.0,30.04,WNW,287,2.0,0.0,70,0.00,,,0.00,,2013-03-01 01:01:00,
2013-02-28 19:11:00,38.0,29.0,30.04,NNW,338,8.0,8.0,70,0.00,,,0.00,,2013-03-01 01:11:00,
2013-02-28 19:21:00,38.0,29.0,30.04,NNW,338,8.0,8.0,70,0.00,,,0.00,,2013-03-01 01:21:00,
2013-02-28 19:32:00,38.0,29.0,30.04,WNW,295,5.0,0.0,70,0.00,,,0.00,,2013-03-01 01:32:00,
2013-02-28 19:42:00,38.0,29.0,30.04,WNW,295,5.0,0.0,70,0.00,,,0.00,,2013-03-01 01:42:00,
2013-02-28 19:52:00,38.0,29.0,30.04,NW,319,0.0,0.0,70,0.00,,,0.00,,2013-03-01 01:52:00,
2013-02-28 20:01:00,38.0,29.0,30.05,NW,318,2.0,6.0,71,0.00,,,0.00,,2013-03-01 02:01:00,
2013-02-28 20:11:00,38.0,29.0,30.05,NW,325,1.0,10.0,71,0.00,,,0.00,,2013-03-01 02:11:00,
2013-02-28 20:21:00,38.0,29.0,30.05,NW,325,1.0,10.0,71,0.00,,,0.00,,2013-03-01 02:21:00,
2013-02-28 20:31:00,38.0,29.0,30.05,NW,319,0.0,0.0,71,0.00,,,0.00,,2013-03-01 02:31:00,
2013-02-28 20:42:00,38.0,29.0,30.05,NW,319,0.0,0.0,71,0.00,,,0.00,,2013-03-01 02:42:00,
2013-02-28 20:52:00,38.0,29.0,30.04,North,1,0.0,0.0,71,0.00,,,0.00,,2013-03-01 02:52:00,
2013-02-28 21:01:00,38.0,29.0,30.04,North,359,0.0,0.0,71,0.00,,,0.00,,2013-03-01 03:01:00,
2013-02-28 21:11:00,38.0,29.0,30.05,NW,311,0.0,0.0,71,0.00,,,0.00,,2013-03-01 03:11:00,
2013-02-28 21:21:00,38.0,29.0,30.05,NW,311,0.0,0.0,71,0.00,,,0.00,,2013-03-01 03:21:00,
2013-02-28 21:32:00,38.0,30.0,30.04,WNW,298,0.0,0.0,72,0.00,,,0.00,,2013-03-01 03:32:00,
2013-02-28 21:42:00,38.0,30.0,30.04,WNW,298,0.0,0.0,72,0.00,,,0.00,,2013-03-01 03:42:00,
2013-02-28 21:52:00,38.0,30.0,30.05,NW,322,0.0,0.0,72,0.00,,,0.00,,2013-03-01 03:52:00,
2013-02-28 22:01:00,38.0,30.0,30.05,West,262,0.0,0.0,72,0.00,,,0.00,,2013-03-01 04:01:00,
2013-02-28 22:11:00,38.0,30.0,30.05,West,271,0.0,0.0,73,0.00,,,0.00,,2013-03-01 04:11:00,
2013-02-28 22:21:00,38.0,30.0,30.05,West,271,0.0,0.0,73,0.00,,,0.00,,2013-03-01 04:21:00,
2013-02-28 22:32:00,38.0,30.0,30.04,NW,305,1.0,0.0,73,0.00,,,0.00,,2013-03-01 04:32:00,
2013-02-28 22:42:00,38.0,30.0,30.04,NW,305,1.0,0.0,73,0.00,,,0.00,,2013-03-01 04:42:00,
2013-02-28 22:52:00,38.0,30.0,30.04,NW,316,0.0,0.0,73,0.00,,,0.00,,2013-03-01 04:52:00,
2013-02-28 23:02:00,38.0,30.0,30.03,NW,315,1.0,0.0,74,0.00,,,0.00,,2013-03-01 05:02:00,
2013-02-28 23:11:00,38.0,30.0,30.03,NW,315,1.0,0.0,74,0.00,,,0.00,,2013-03-01 05:11:00,
2013-02-28 23:22:00,38.0,30.0,30.03,NW,315,0.0,0.0,74,0.00,,,0.00,,2013-03-01 05:22:00,
2013-02-28 23:32:00,38.0,30.0,30.03,West,274,0.0,0.0,74,0.00,,,0.00,,2013-03-01 05:32:00,
2013-02-28 23:42:00,38.0,30.0,30.03,West,274,0.0,0.0,74,0.00,,,0.00,,2013-03-01 05:42:00,
2013-02-28 23:52:00,38.0,30.0,30.02,West,274,0.0,0.0,74,0.00,,,0.00,,2013-03-01 05:52:00,